EW1867 Weather Reports


Display with metric or nautical units.
time (UTC)temp
F
wind
direction
speed
MPH
gust
MPH
rain 1hr
in
rain 24hr
in
rain mn
in
humidity
%
barometer
mb
20260507045637 67 0 0.0 0.0 0.00 0.00 0.00 77 1016.6
20260507044737 67 217 1.0 3.0 0.00 0.00 0.00 76 1016.6
20260507043837 68 195 1.0 4.0 0.00 0.00 0.00 76 1016.5
20260507042937 68 197 1.0 4.0 0.00 0.00 0.00 75 1016.4
20260507042037 68 0 0.0 3.0 0.00 0.00 0.00 75 1016.4
20260507041137 69 0 0.0 1.0 0.00 0.00 0.00 74 1016.3
20260507040237 69 0 0.0 1.0 0.00 0.00 0.00 73 1016.1
20260507034437 69 0 0.0 0.0 0.00 0.00 0.00 73 1015.9
20260507033537 69 0 0.0 0.0 0.00 0.00 0.00 72 1015.9
20260507031737 70 0 0.0 0.0 0.00 0.00 0.00 71 1015.8
20260507030837 70 0 0.0 0.0 0.00 0.00 0.00 69 1015.8
20260507025937 71 0 0.0 0.0 0.00 0.00 0.00 69 1015.7
20260507025037 72 0 0.0 0.0 0.00 0.00 0.00 65 1015.7
20260507024137 73 0 0.0 0.0 0.00 0.00 0.00 65 1015.7
20260507023237 74 0 0.0 1.0 0.00 0.00 0.00 64 1015.7
20260507022337 73 0 0.0 1.0 0.00 0.00 0.00 65 1015.7
20260507021437 73 0 0.0 1.0 0.00 0.00 0.00 64 1015.6
20260507020537 73 0 0.0 1.0 0.00 0.00 0.00 64 1015.7
20260507015637 73 331 0.0 2.0 0.00 0.00 0.00 64 1015.8
20260507014737 73 47 1.0 2.0 0.00 0.00 0.00 64 1015.8
20260507012937 74 0 0.0 3.0 0.00 0.00 0.00 64 1015.9
20260507012037 74 0 0.0 2.0 0.00 0.00 0.00 64 1015.8
20260507011137 74 0 0.0 2.0 0.00 0.00 0.00 63 1015.8
20260507010237 74 280 1.0 2.0 0.00 0.00 0.00 63 1015.9
20260507005337 74 295 1.0 3.0 0.00 0.00 0.00 63 1015.9
20260507004437 74 270 1.0 4.0 0.00 0.00 0.00 63 1015.9
20260507003537 74 273 1.0 5.0 0.00 0.00 0.00 63 1016.0
20260507002637 74 240 1.0 3.0 0.00 0.00 0.00 62 1016.0
20260507001737 74 314 2.0 4.0 0.00 0.00 0.00 62 1016.0
20260507000837 75 359 1.0 5.0 0.00 0.00 0.00 60 1016.1
20260506235937 76 248 1.0 4.0 0.00 0.00 0.00 61 1016.1
20260506235037 75 287 1.0 4.0 0.00 0.00 0.00 62 1016.2
20260506233237 76 266 1.0 5.0 0.00 0.00 0.00 60 1016.2
20260506232337 75 307 2.0 6.0 0.00 0.00 0.00 61 1016.4
20260506231437 75 328 2.0 5.0 0.00 0.00 0.00 60 1016.4
20260506230538 75 264 1.0 5.0 0.00 0.00 0.00 60 1016.6
20260506225637 75 296 2.0 4.0 0.00 0.00 0.00 60 1016.7
20260506224737 75 294 2.0 6.0 0.00 0.00 0.00 62 1016.9
20260506222037 74 333 1.0 4.0 0.00 0.00 0.00 61 1017.3
20260506221137 74 342 2.0 6.0 0.00 0.00 0.00 62 1017.5
20260506220237 74 328 1.0 7.0 0.00 0.00 0.00 62 1017.8
20260506214437 73 319 2.0 5.0 0.00 0.00 0.00 62 1017.9
20260506213537 74 301 2.0 5.0 0.00 0.00 0.00 61 1018.0
20260506205937 72 292 1.0 6.0 0.00 0.00 0.00 63 1018.4
20260506204137 72 319 1.0 6.0 0.00 0.00 0.00 63 1018.6
20260506203237 72 292 1.0 6.0 0.00 0.00 0.00 63 1018.7
20260506202337 72 316 1.0 5.0 0.00 0.00 0.00 63 1018.8
20260506201437 72 247 1.0 2.0 0.00 0.00 0.00 63 1018.8
20260506200537 71 311 1.0 4.0 0.00 0.00 0.00 63 1018.9
20260506195637 71 319 2.0 5.0 0.00 0.00 0.00 63 1018.8
20260506194737 72 247 1.0 4.0 0.00 0.00 0.00 63 1018.9
20260506193837 72 0 0.0 2.0 0.00 0.00 0.00 63 1019.0
20260506192937 72 277 0.0 2.0 0.00 0.00 0.00 63 1019.1
20260506191137 71 286 1.0 5.0 0.00 0.00 0.00 63 1019.5
20260506185337 71 268 1.0 3.0 0.00 0.00 0.00 64 1019.4
20260506184437 70 296 1.0 4.0 0.00 0.00 0.00 65 1019.5
20260506183537 71 0 0.0 2.0 0.00 0.00 0.00 67 1019.6
20260506182637 70 353 0.0 3.0 0.00 0.00 0.00 66 1019.7
20260506181737 70 219 1.0 3.0 0.00 0.00 0.00 65 1019.7
20260506180837 70 0 0.0 2.0 0.00 0.00 0.00 67 1019.7
20260506175937 68 185 1.0 2.0 0.00 0.00 0.00 69 1019.8
20260506175037 67 104 1.0 3.0 0.00 0.00 0.00 70 1019.6
20260506174137 67 0 0.0 2.0 0.00 0.00 0.00 69 1019.7
20260506173237 66 0 0.0 2.0 0.00 0.00 0.00 71 1019.7
20260506172337 65 0 0.0 1.0 0.00 0.00 0.00 72 1019.7
20260506170537 65 0 0.0 1.0 0.00 0.00 0.00 72 1019.7
20260506165637 64 0 0.0 1.0 0.00 0.00 0.00 75 1019.6
20260506164738 64 0 0.0 2.0 0.00 0.00 0.00 76 1019.5
20260506163837 63 0 0.0 1.0 0.00 0.00 0.00 77 1019.4
20260506162937 63 0 0.0 1.0 0.00 0.00 0.00 77 1019.6
20260506162037 62 0 0.0 2.0 0.00 0.00 0.00 78 1019.5
20260506161137 62 137 1.0 2.0 0.00 0.00 0.00 79 1019.5
20260506160237 61 200 0.0 2.0 0.00 0.00 0.00 79 1019.4
20260506155337 61 0 0.0 2.0 0.00 0.00 0.00 79 1019.5
20260506154437 61 0 0.0 1.0 0.00 0.00 0.00 78 1019.5
20260506153538 61 0 0.0 1.0 0.00 0.00 0.00 80 1019.6
20260506151737 60 119 0.0 2.0 0.00 0.00 0.00 80 1019.4
20260506150837 60 0 0.0 2.0 0.00 0.00 0.00 80 1019.3
20260506145937 59 0 0.0 2.0 0.00 0.00 0.00 81 1019.4
20260506144137 59 120 0.0 3.0 0.00 0.00 0.00 82 1019.4
20260506142337 58 0 0.0 2.0 0.00 0.00 0.00 83 1019.3
20260506141437 58 0 0.0 2.0 0.00 0.00 0.00 83 1019.2
20260506140537 58 113 1.0 3.0 0.00 0.00 0.00 84 1019.0
20260506134737 58 119 0.0 2.0 0.00 0.00 0.00 84 1018.9
20260506133837 58 105 0.0 3.0 0.00 0.00 0.00 84 1018.9
20260506132037 58 0 0.0 2.0 0.00 0.00 0.00 84 1018.7
20260506131138 58 0 0.0 3.0 0.00 0.00 0.00 84 1018.7
20260506125337 58 104 1.0 3.0 0.00 0.00 0.00 84 1018.7
20260506123537 58 99 0.0 4.0 0.00 0.00 0.00 84 1018.5
20260506122637 58 0 0.0 3.0 0.00 0.00 0.00 84 1018.4
20260506120837 58 102 1.0 5.0 0.00 0.00 0.00 84 1018.4
20260506115937 58 101 1.0 5.0 0.00 0.00 0.00 84 1018.3
20260506115037 58 103 1.0 4.0 0.00 0.00 0.00 84 1018.4
20260506114137 58 108 1.0 4.0 0.00 0.00 0.00 84 1018.4
20260506113237 58 101 1.0 2.0 0.00 0.00 0.00 84 1018.3
20260506112337 58 0 0.0 2.0 0.00 0.00 0.00 84 1018.3
20260506104737 58 0 0.0 2.0 0.00 0.00 0.00 82 1018.1
20260506102937 58 0 0.0 2.0 0.00 0.00 0.00 82 1017.9
20260506102037 58 111 0.0 2.0 0.00 0.00 0.00 82 1017.7
20260506101137 58 103 0.0 3.0 0.00 0.00 0.00 82 1017.7
20260506095337 59 106 0.0 3.0 0.00 0.00 0.00 81 1017.5
20260506094437 59 0 0.0 2.0 0.00 0.00 0.00 81 1017.6
20260506093537 59 0 0.0 3.0 0.00 0.00 0.00 81 1017.6
20260506092637 59 125 0.0 2.0 0.00 0.00 0.00 81 1017.7
20260506091737 59 117 0.0 3.0 0.00 0.00 0.00 80 1017.6
20260506090838 59 0 0.0 2.0 0.00 0.00 0.00 80 1017.6
20260506085937 59 112 1.0 2.0 0.00 0.00 0.00 80 1017.6
20260506085037 59 105 0.0 2.0 0.00 0.00 0.00 80 1017.7
20260506084137 60 110 0.0 2.0 0.00 0.00 0.00 80 1017.6
20260506083237 60 106 1.0 2.0 0.00 0.00 0.00 80 1017.7
20260506082337 60 109 0.0 4.0 0.00 0.00 0.00 80 1017.7
20260506081437 60 0 0.0 1.0 0.00 0.00 0.00 81 1017.6
20260506080537 60 0 0.0 1.0 0.00 0.00 0.00 80 1017.6
20260506072037 60 0 0.0 0.0 0.00 0.00 0.00 80 1017.2
20260506070238 60 0 0.0 0.0 0.00 0.01 0.00 80 1017.1
20260506061737 61 0 0.0 0.0 0.00 0.03 0.01 80 1016.6
20260506060837 61 0 0.0 1.0 0.00 0.04 0.01 80 1016.6
20260506050537 62 0 0.0 2.0 0.00 0.14 0.01 79 1016.1